Lid_Strength_Index
13 11 11 12 13 12 14 14 16 14 14 12 10 9 8 7 6 6 6 6 5 5 4 4 3 3 3 2 2 2 2 2 2 2 1 1 1 1 1 1 1 1 1 1
16 11 11 13 11 11 12 12 12 12 13 8 7 7 7 7 7 7 6 5 5 4 4 4 3 3 2 2 2 2 2 2 2 2 2 2 2 1 1 1 1 1 1 1
17 12 13 15 13 13 12 11 12 15 12 8 8 8 7 7 7 6 6 5 5 4 4 3 3 2 3 3 2 2 3 3 2 2 3 3 2 1 1 1 1 1 1 1
17 16 18 13 9 9 11 10 10 10 9 8 8 7 6 5 6 6 5 5 4 4 3 3 2 2 2 2 2 3 4 2 3 3 3 2 2 2 2 1 2 1 1 1
15 17 14 11 10 11 12 12 9 9 8 7 7 6 7 4 4 5 4 4 3 3 3 2 2 2 2 2 2 2 2 3 3 2 2 2 2 3 2 1 2 2 1 1
15 16 17 13 8 7 8 14 8 8 8 8 7 11 9 5 4 4 3 3 3 3 2 2 2 2 2 3 3 3 2 2 1 2 2 2 2 2 1 1 2 1 2 1
14 15 14 9 8 7 15 13 8 7 7 7 9 7 6 4 5 5 4 4 4 3 3 3 2 2 3 3 3 2 1 1 1 1 1 1 2 2 4 4 2 2 2 1
15 16 16 7 8 11 9 8 6 6 6 7 6 5 5 5 6 5 5 5 4 4 3 3 2 2 3 3 2 1 1 2 2 1 1 1 2 2 2 2 3 4 2 2
13 13 9 7 8 6 6 7 7 7 6 5 6 6 6 6 6 6 6 6 5 4 4 3 3 2 3 2 1 2 2 2 2 1 1 1 2 2 3 2 3 5 4 3
11 10 9 7 6 6 5 6 5 5 5 5 6 6 6 6 6 6 5 5 5 5 5 5 4 3 2 1 1 2 2 2 2 2 2 1 2 2 2 3 3 4 3 3
11 10 8 7 6 6 5 4 5 5 5 5 6 5 6 7 7 6 6 5 5 5 5 6 5 4 3 2 2 2 2 2 2 2 2 2 2 2 2 2 3 3 3 2
11 9 8 8 6 5 5 5 5 6 6 6 5 5 6 7 6 6 6 6 6 5 5 5 5 5 4 3 2 2 3 2 2 2 2 2 2 2 5 6 9 10 10 5
8 7 7 6 5 4 5 5 5 6 6 6 5 5 6 7 7 6 6 6 6 6 6 6 5 4 4 3 3 2 3 2 2 3 2 2 2 3 3 4 8 9 10 11
6 6 8 6 6 5 5 5 5 5 6 6 5 5 6 6 6 5 5 5 5 5 5 6 5 4 3 3 2 2 3 5 3 2 2 2 2 2 3 3 3 3 9 9
7 7 8 6 5 5 5 5 6 7 7 7 6 6 6 7 6 6 5 5 5 6 7 7 6 6 5 4 3 2 3 2 2 2 2 2 2 2 2 3 3 3 3 7
8 8 8 6 6 5 6 6 7 7 7 7 7 7 6 6 6 5 5 5 6 7 7 7 7 6 6 5 4 4 3 3 2 2 2 2 2 2 2 3 3 3 3 2
9 10 9 8 6 6 6 6 6 7 7 8 7 6 7 7 7 6 6 6 6 7 6 7 7 6 5 4 5 5 4 3 2 2 2 2 2 2 2 3 3 3 2 3
8 8 7 6 6 6 6 6 6 6 7 7 6 7 7 8 8 7 6 6 6 6 6 6 5 5 5 4 5 5 4 2 2 2 2 2 2 2 2 2 3 3 2 3
8 7 7 6 5 5 5 5 6 6 6 6 6 7 7 7 8 8 6 6 7 7 7 5 4 5 6 5 3 3 3 2 2 2 2 3 2 2 2 2 2 2 2 2
7 6 6 5 5 5 5 5 5 5 5 6 6 6 6 7 8 8 8 7 7 6 5 5 5 6 6 5 5 5 5 5 5 4 4 4 3 3 2 4 3 2 2 2
7 7 6 6 5 4 4 5 5 5 5 6 6 6 6 6 7 8 8 9 7 6 5 5 5 5 5 5 6 6 7 7 6 7 6 6 6 5 5 4 4 3 2 2
8 7 7 6 6 5 5 4 5 5 5 5 5 5 5 6 8 8 8 8 7 6 6 6 5 5 5 5 6 7 7 6 7 7 8 7 7 7 7 7 6 6 5 6
8 8 7 6 7 6 6 6 6 5 5 4 5 5 5 5 7 8 9 7 6 6 6 6 5 5 5 6 6 6 6 6 6 7 7 7 8 8 8 8 8 8 8 7
8 8 7 6 6 7 7 6 7 6 5 5 4 4 4 4 6 8 7 6 6 5 6 4 4 5 5 6 6 6 6 6 6 6 6 7 7 8 8 8 9 9 8 8
7 7 7 7 7 7 6 6 7 7 7 7 6 5 3 3 5 6 7 6 6 5 5 5 4 5 6 6 6 6 6 6 6 6 6 6 6 6 7 8 8 9 9 8
6 6 7 6 6 6 6 6 7 7 7 7 6 5 4 3 4 6 6 6 5 5 5 5 5 4 5 5 6 6 6 6 6 6 6 5 5 6 5 5 7 8 8 9
4 6 5 5 6 6 6 7 8 8 8 7 6 5 4 3 4 6 6 5 5 5 4 4 4 4 4 4 5 6 6 6 7 6 5 4 4 4 4 4 5 6 7 9